DAL1088 KTPA-KMIA

Flight info

Callsign DAL1088
Flight time 0h 35m
Altitude 20000
Route GANDY8 SABEE FROGZ4
Aircraft A321/M-SDE3FGHIRWY/LB1

Departure

Time 2026-04-30 20:00
Airport Tampa International Airport (KTPA)

Arrival

Time 2026-04-30 20:36
Airport Miami International Airport (KMIA)
Time Latitude Longitude Altitude Speed Heading
2026-04-30 19:47 27.97954 -82.53882 26 ft 0 kts 91°
2026-04-30 19:53 27.97954 -82.53888 25 ft 3 kts 91°
2026-04-30 19:54 27.97955 -82.53910 29 ft 3 kts 91°
2026-04-30 19:54 27.97952 -82.53933 26 ft 3 kts 60°
2026-04-30 19:54 27.97940 -82.53950 25 ft 2 kts 43°
2026-04-30 19:54 27.97937 -82.53953 26 ft 0 kts 38°
2026-04-30 19:55 27.97962 -82.53962 25 ft 7 kts 342°
2026-04-30 19:55 27.97977 -82.53967 26 ft 0 kts 343°
2026-04-30 19:56 27.97980 -82.53968 26 ft 3 kts 344°
2026-04-30 19:56 27.98077 -82.53970 26 ft 26 kts
2026-04-30 19:56 27.98330 -82.53962 28 ft 32 kts
2026-04-30 19:57 27.98550 -82.53955 32 ft 31 kts
2026-04-30 19:57 27.98768 -82.53948 29 ft 32 kts
2026-04-30 19:57 27.98985 -82.53939 30 ft 31 kts
2026-04-30 19:57 27.99204 -82.53931 28 ft 31 kts
2026-04-30 19:58 27.99261 -82.53990 28 ft 6 kts 299°
2026-04-30 19:58 27.99299 -82.54009 22 ft 9 kts 342°
2026-04-30 19:58 27.99333 -82.54034 32 ft 0 kts 299°
2026-04-30 19:59 27.99340 -82.54058 30 ft 9 kts 283°
2026-04-30 19:59 27.99323 -82.54135 28 ft 0 kts 247°
2026-04-30 19:59 27.99294 -82.54135 30 ft 0 kts 181°
2026-04-30 20:00 27.99149 -82.54141 28 ft 57 kts 181°
2026-04-30 20:00 27.98525 -82.54162 31 ft 120 kts 181°
2026-04-30 20:00 27.97525 -82.54192 46 ft 163 kts 187°
2026-04-30 20:00 27.96382 -82.54238 683 ft 159 kts 188°
2026-04-30 20:01 27.94075 -82.54486 1418 ft 199 kts 192°
2026-04-30 20:01 27.92610 -82.54689 1617 ft 226 kts 182°
2026-04-30 20:01 27.90985 -82.54190 1936 ft 257 kts 162°
2026-04-30 20:02 27.87537 -82.52692 3683 ft 270 kts 163°
2026-04-30 20:02 27.85763 -82.51934 4625 ft 275 kts 162°
2026-04-30 20:03 27.82114 -82.50376 6334 ft 286 kts 162°
2026-04-30 20:03 27.80241 -82.49573 7127 ft 290 kts 162°
2026-04-30 20:03 27.78334 -82.48755 7887 ft 296 kts 162°
2026-04-30 20:03 27.76392 -82.47925 8668 ft 300 kts 163°
2026-04-30 20:04 27.74418 -82.47082 9432 ft 306 kts 163°
2026-04-30 20:04 27.72440 -82.46236 10176 ft 311 kts 163°
2026-04-30 20:04 27.70320 -82.45335 10510 ft 333 kts 163°
2026-04-30 20:05 27.65705 -82.43385 10853 ft 378 kts 163°
2026-04-30 20:05 27.63208 -82.42316 11338 ft 388 kts 162°
2026-04-30 20:05 27.58112 -82.40116 12668 ft 396 kts 162°
2026-04-30 20:06 27.55526 -82.39005 13357 ft 399 kts 162°
2026-04-30 20:06 27.52911 -82.37887 13996 ft 403 kts 162°
2026-04-30 20:06 27.50269 -82.36760 14565 ft 407 kts 162°
2026-04-30 20:06 27.47600 -82.35624 15113 ft 412 kts 162°
2026-04-30 20:07 27.44902 -82.34476 15658 ft 416 kts 162°
2026-04-30 20:07 27.42183 -82.33322 16190 ft 421 kts 162°
2026-04-30 20:07 27.36668 -82.30977 17212 ft 429 kts 162°
2026-04-30 20:08 27.33858 -82.29781 17722 ft 434 kts 162°
2026-04-30 20:08 27.31021 -82.28576 18214 ft 438 kts 162°
2026-04-30 20:08 27.28144 -82.27357 18641 ft 442 kts 162°
2026-04-30 20:08 27.25283 -82.26142 19079 ft 445 kts 162°
2026-04-30 20:09 27.22378 -82.24906 19510 ft 448 kts 162°
2026-04-30 20:09 27.19442 -82.23664 19943 ft 451 kts 162°
2026-04-30 20:09 27.13529 -82.21168 20775 ft 457 kts 162°
2026-04-30 20:10 27.07454 -82.18898 20979 ft 467 kts 171°
2026-04-30 20:10 27.04235 -82.18253 20980 ft 473 kts 173°
2026-04-30 20:10 27.00976 -82.17629 20980 ft 475 kts 173°
2026-04-30 20:11 26.94459 -82.16376 20981 ft 475 kts 173°
2026-04-30 20:11 26.91241 -82.15755 20979 ft 476 kts 173°
2026-04-30 20:11 26.87972 -82.15123 20979 ft 476 kts 173°
2026-04-30 20:12 26.81464 -82.13861 20975 ft 465 kts 173°
2026-04-30 20:12 26.78350 -82.13251 20974 ft 444 kts 173°
2026-04-30 20:12 26.75379 -82.12667 20975 ft 424 kts 173°
2026-04-30 20:13 26.72511 -82.12059 20978 ft 416 kts 172°
2026-04-30 20:13 26.69682 -82.11408 20973 ft 415 kts 171°
2026-04-30 20:13 26.66881 -82.10735 20966 ft 415 kts 171°
2026-04-30 20:13 26.64054 -82.10047 20966 ft 415 kts 171°
2026-04-30 20:14 26.61223 -82.09363 20969 ft 415 kts 171°
2026-04-30 20:14 26.58399 -82.08692 20962 ft 415 kts 171°
2026-04-30 20:14 26.55604 -82.07853 20969 ft 417 kts 163°
2026-04-30 20:14 26.52941 -82.06543 20966 ft 420 kts 153°
2026-04-30 20:15 26.50498 -82.04790 20966 ft 422 kts 143°
2026-04-30 20:15 26.48276 -82.02648 20963 ft 423 kts 138°
2026-04-30 20:15 26.46100 -82.00440 20964 ft 423 kts 138°
2026-04-30 20:15 26.43912 -81.98231 20969 ft 423 kts 139°
2026-04-30 20:16 26.41726 -81.96035 20968 ft 423 kts 139°
2026-04-30 20:16 26.39542 -81.93845 20834 ft 420 kts 139°
2026-04-30 20:16 26.37379 -81.91676 20241 ft 414 kts 139°
2026-04-30 20:16 26.35246 -81.89537 19501 ft 411 kts 139°
2026-04-30 20:17 26.33151 -81.87436 18813 ft 407 kts 139°
2026-04-30 20:17 26.31053 -81.85330 18121 ft 403 kts 139°
2026-04-30 20:17 26.28980 -81.83252 17380 ft 398 kts 139°
2026-04-30 20:17 26.26938 -81.81205 16707 ft 392 kts 139°
2026-04-30 20:18 26.25009 -81.79093 16050 ft 386 kts 132°
2026-04-30 20:18 26.23381 -81.76739 15406 ft 381 kts 123°
2026-04-30 20:18 26.22070 -81.74197 14770 ft 376 kts 116°
2026-04-30 20:18 26.20943 -81.71591 14242 ft 371 kts 116°
2026-04-30 20:19 26.19819 -81.69001 14066 ft 371 kts 116°
2026-04-30 20:19 26.19076 -81.67292 14011 ft 370 kts 116°
2026-04-30 20:19 26.17572 -81.63836 14035 ft 371 kts 116°
2026-04-30 20:19 26.16446 -81.61248 14033 ft 371 kts 116°
2026-04-30 20:20 26.15321 -81.58663 14033 ft 371 kts 116°
2026-04-30 20:20 26.14194 -81.56076 14038 ft 371 kts 116°
2026-04-30 20:20 26.13065 -81.53490 14033 ft 371 kts 116°
2026-04-30 20:20 26.11937 -81.50907 14030 ft 371 kts 116°
2026-04-30 20:21 26.10823 -81.48356 14032 ft 371 kts 116°
2026-04-30 20:21 26.09694 -81.45774 14031 ft 371 kts 116°
2026-04-30 20:21 26.08564 -81.43190 14028 ft 371 kts 116°
2026-04-30 20:21 26.07437 -81.40611 14028 ft 370 kts 116°
2026-04-30 20:22 26.06311 -81.38031 13959 ft 371 kts 116°
2026-04-30 20:22 26.05187 -81.35448 13718 ft 369 kts 116°
2026-04-30 20:22 26.04072 -81.32884 13460 ft 367 kts 116°
2026-04-30 20:22 26.02979 -81.30369 13203 ft 365 kts 116°
2026-04-30 20:23 26.01873 -81.27830 12946 ft 364 kts 116°
2026-04-30 20:23 26.00772 -81.25304 12691 ft 362 kts 116°
2026-04-30 20:23 25.99675 -81.22790 12440 ft 361 kts 116°
2026-04-30 20:23 25.98581 -81.20287 12193 ft 359 kts 116°
2026-04-30 20:24 25.97492 -81.17797 11946 ft 357 kts 116°
2026-04-30 20:24 25.96408 -81.15321 11700 ft 354 kts 116°
2026-04-30 20:24 25.95345 -81.12891 11451 ft 345 kts 116°
2026-04-30 20:24 25.94306 -81.10521 11210 ft 337 kts 116°
2026-04-30 20:25 25.92290 -81.05930 10733 ft 323 kts 116°
2026-04-30 20:25 25.91312 -81.03701 10494 ft 317 kts 115°
2026-04-30 20:26 25.89551 -80.99296 10034 ft 312 kts 112°
2026-04-30 20:26 25.87893 -80.94861 9758 ft 310 kts 112°
2026-04-30 20:26 25.87066 -80.92656 9627 ft 309 kts 112°
2026-04-30 20:27 25.85396 -80.88268 9147 ft 307 kts 113°
2026-04-30 20:27 25.83732 -80.83938 8423 ft 303 kts 113°
2026-04-30 20:28 25.82099 -80.79698 7721 ft 298 kts 113°
2026-04-30 20:28 25.80489 -80.75526 7212 ft 285 kts 114°
2026-04-30 20:29 25.78950 -80.71538 6629 ft 277 kts 114°
2026-04-30 20:30 25.77155 -80.65480 5356 ft 281 kts 91°
2026-04-30 20:30 25.77429 -80.59100 4337 ft 268 kts 88°
2026-04-30 20:31 25.77678 -80.53348 3609 ft 231 kts 88°
2026-04-30 20:32 25.77891 -80.48414 2986 ft 205 kts 88°
2026-04-30 20:32 25.78001 -80.45841 2562 ft 197 kts 90°
2026-04-30 20:33 25.78086 -80.43852 2219 ft 191 kts 89°
2026-04-30 20:33 25.78208 -80.41021 1784 ft 175 kts 90°
2026-04-30 20:33 25.78246 -80.40121 1598 ft 169 kts 90°
2026-04-30 20:34 25.78350 -80.37672 1183 ft 149 kts 89°
2026-04-30 20:34 25.78466 -80.35443 794 ft 132 kts 91°
2026-04-30 20:35 25.78503 -80.34413 695 ft 138 kts 94°
2026-04-30 20:35 25.78541 -80.33350 539 ft 134 kts 94°
2026-04-30 20:35 25.78636 -80.31203 153 ft 140 kts 91°
2026-04-30 20:36 25.78668 -80.30185 21 ft 121 kts 90°
2026-04-30 20:36 25.78684 -80.29568 16 ft 10 kts 86°
2026-04-30 20:36 25.78703 -80.29359 18 ft 22 kts 85°